User: anonymous
Location: Caltech
(34.1382°N, 118.1253°W)
Time: 01:24:09
(UTC-07:00)
Language:

Cosmos 1025 Rocket - Orbit

View from above orbital plane
View from above orbital plane
View from above satellite
View from above satellite

Ground track
Ground track

The orbit data is extracted from the following two-line orbital elements,

1 10974U 78067B   14204.77012253  .00000109  00000-0  95294-5 0  3524
2 10974 082.4819 092.2394 0016310 250.1368 171.0837 14.86613431950132
Epoch (UTC): 23 July 2014 18:28:58
Eccentricity: 0.0016310
inclination: 82.4819°
perigee height: 597 km
apogee height: 620 km
right ascension of ascending node: 92.2394°
argument of perigee: 250.1368°
revolutions per day: 14.86613431
mean anomaly at epoch: 171.0837°
orbit number at epoch: 95013

The dashed part of the orbit path shows where the satellite is in the earth's shadow,  

DLR